Haleyville, AL

3:51 AM CDT on April 27, 2018 (GMT -0500)
Haleyville

Weather History for K1M4 - June, 2014

Change the Weather History Date:

Sunday, June 8, 2014

  Actual Average (KJFX) Record (KJFX)
Temperature  
Mean Temperature 72 °F -  
Max Temperature 82 °F 86 °F 102 °F (2011)
Min Temperature 63 °F 60 °F 44 °F (1977)
Cooling Degree Days 8    
Growing Degree Days 22 (Base 50)    
Moisture  
Dew Point 68 °F    
Average Humidity 88    
Maximum Humidity 100    
Minimum Humidity 67    
Precipitation  
Precipitation 0.01 in - - ()
Sea Level Pressure  
Sea Level Pressure 30.01 in    
Wind  
Wind Speed 2 mph (WSW)    
Max Wind Speed 9 mph    
Max Gust Speed -    
Visibility 10 miles    
Events      
Averages and records for this station are not official NWS values.
T = Trace of Precipitation, MM = Missing Value Source: NWS Daily Summary

Daily Weather History Graph

Daily Weather History Graph

Search for Another Location

Airport or City:

Astronomy

Jun. 08, 2014 Rise Set
Actual Time 5:38 AM CDT 8:01 PM CDT
Civil Twilight 5:08 AM CDT 8:30 PM CDT
Nautical Twilight 4:33 AM CDT 9:06 PM CDT
Astronomical Twilight 3:53 AM CDT 9:45 PM CDT
Moon 3:29 PM CDT (6/8) 2:18 AM CDT (6/8)
Length of Visible Light 15h 21m
Length of Day
14h 23m
Waxing Gibbous, 77% of the Moon is Illuminated
Jun 8
Waxing Gibbous
Jun 12
Full
Jun 19
Last Quarter
Jun 27
New
Jul 5
First Quarter

Hourly Weather History & Observations

Time (CDT) Temp. Heat Index Dew Point Humidity Pressure Visibility Wind Dir Wind Speed Gust Speed Precip Events Conditions
1:56 AM 64.9 °F - 64.9 °F 100% 30.01 in 10.0 mi Calm Calm - N/A   Clear
2:56 AM 64.9 °F - 64.9 °F 100% 29.99 in 10.0 mi SSW 3.5 mph - N/A   Partly Cloudy
3:14 AM 64.4 °F - 64.4 °F 100% 29.95 in 10.0 mi Calm Calm - N/A   Mostly Cloudy
3:41 AM 64.4 °F - 64.4 °F 100% 29.95 in 10.0 mi South 3.5 mph - N/A   Scattered Clouds
3:56 AM 63.9 °F - 63.9 °F 100% 29.99 in 10.0 mi Calm Calm - N/A   Scattered Clouds
4:19 AM 64.4 °F - 64.4 °F 100% 29.95 in 10.0 mi Calm Calm - N/A   Mostly Cloudy
4:56 AM 63.9 °F - 63.9 °F 100% 30.00 in 10.0 mi Calm Calm - N/A   Overcast
5:41 AM 64.4 °F - 64.4 °F 100% 29.98 in 10.0 mi Calm Calm - N/A   Mostly Cloudy
5:56 AM 63.9 °F - 63.9 °F 100% 30.02 in 10.0 mi Calm Calm - 0.01 in   Mostly Cloudy
6:56 AM 64.9 °F - 64.9 °F 100% 30.04 in 10.0 mi SSW 6.9 mph - N/A   Mostly Cloudy
7:56 AM 68.0 °F - 65.8 °F 93% 30.05 in 10.0 mi SW 9.2 mph - N/A   Scattered Clouds
8:56 AM 70.9 °F - 66.9 °F 87% 30.06 in 10.0 mi Calm Calm - N/A   Scattered Clouds
9:56 AM 73.9 °F - 68.9 °F 84% 30.06 in 10.0 mi Calm Calm - N/A   Mostly Cloudy
10:56 AM 77.9 °F - 70.0 °F 76% 30.07 in 10.0 mi West 5.8 mph - N/A   Scattered Clouds
12:56 PM 81.9 °F 86.0 °F 70.9 °F 69% 30.06 in 10.0 mi WSW 5.8 mph - N/A   Scattered Clouds
1:56 PM 82.9 °F 87.5 °F 70.9 °F 67% 30.04 in 10.0 mi Calm Calm - N/A   Mostly Cloudy
2:24 PM 80.6 °F 84.6 °F 71.6 °F 74% 30.00 in 10.0 mi NNW 8.1 mph - N/A   Mostly Cloudy
2:42 PM 82.4 °F 87.2 °F 71.6 °F 70% 29.99 in 10.0 mi North 8.1 mph - N/A   Mostly Cloudy
2:56 PM 81.9 °F 86.6 °F 72.0 °F 72% 30.03 in 10.0 mi Calm Calm - N/A   Mostly Cloudy
3:56 PM 81.0 °F 84.7 °F 70.9 °F 71% 30.01 in 10.0 mi Calm Calm - N/A   Partly Cloudy
4:56 PM 81.9 °F 86.6 °F 72.0 °F 72% 30.00 in 10.0 mi Calm Calm - N/A   Scattered Clouds
5:56 PM 79.9 °F - 70.9 °F 74% 30.00 in 10.0 mi Calm Calm - N/A   Clear
6:56 PM 79.0 °F - 72.0 °F 79% 30.00 in 10.0 mi Calm Calm - N/A   Clear
7:56 PM 74.8 °F - 70.9 °F 87% 29.98 in 10.0 mi Calm Calm - N/A   Clear
8:56 PM 72.9 °F - 70.9 °F 93% 30.00 in 10.0 mi Calm Calm - N/A   Clear
9:56 PM 70.9 °F - 70.9 °F 100% 30.01 in 10.0 mi Calm Calm - N/A   Clear
10:56 PM 70.9 °F - 70.9 °F 100% 30.01 in 10.0 mi Calm Calm - N/A   Scattered Clouds
11:56 PM 68.9 °F - 68.9 °F 100% 29.99 in 3.0 mi Calm Calm - N/A   Clear